Theta_e
328 327 318 317 318 318 321 322 323 322 321 321 321 324 335 338 342 352 343 341 344 343 345 345 343 343 342 342 341 340 339 338 337 337 337 337 341 341 340 341 342 341 341 338 337 336 338 338 337
327 322 317 318 317 319 320 321 322 322 321 319 319 322 328 339 346 344 343 342 344 342 342 345 343 343 342 341 341 339 338 336 336 338 340 339 341 339 340 340 340 340 339 337 337 338 337 337 335
326 317 317 318 317 318 320 321 322 321 319 320 320 323 323 333 345 343 344 343 342 341 341 343 343 343 342 340 339 338 337 336 336 335 340 338 339 339 338 339 338 336 335 333 336 336 336 335 332
324 316 319 317 315 315 316 320 321 321 320 323 321 325 330 344 343 344 343 343 341 339 339 340 340 341 341 339 338 335 336 337 332 334 338 339 337 337 334 334 332 329 330 333 334 335 335 333 329
321 316 316 315 315 316 316 317 317 317 319 320 321 326 336 343 343 344 343 343 340 339 339 340 339 339 337 334 333 338 337 332 332 333 336 336 335 331 328 330 326 326 329 331 334 334 334 331 327
320 318 317 317 314 314 315 316 315 315 317 318 321 322 339 343 344 344 343 342 339 340 338 340 338 336 335 334 338 338 335 331 332 330 334 334 332 328 329 325 324 330 329 332 334 334 333 328 326
319 316 317 315 315 315 315 315 314 315 316 317 319 323 341 344 344 343 343 341 340 341 340 340 339 337 336 338 338 337 332 331 335 332 323 322 325 330 326 324 327 330 329 327 331 333 330 325 324
323 318 316 315 316 314 315 315 315 314 316 318 318 321 338 344 343 343 343 341 342 341 341 340 339 337 338 339 337 335 331 331 336 331 325 324 327 329 328 329 331 330 328 325 325 325 328 325 325
322 322 321 317 315 314 314 314 314 315 315 318 319 323 334 343 343 343 343 342 342 342 342 338 337 336 335 337 336 333 331 330 334 331 328 327 328 332 333 333 330 327 325 324 323 322 323 323 325
326 325 320 317 316 314 314 312 313 313 313 316 320 330 343 343 344 344 343 342 343 342 341 338 337 337 336 336 334 334 333 332 334 331 329 328 326 330 330 329 327 324 323 322 322 323 325 325 325
322 327 318 316 315 314 314 313 313 313 314 314 318 332 343 342 343 344 343 343 342 342 341 338 338 338 337 336 335 334 331 330 331 331 328 328 326 328 328 328 327 325 324 322 323 325 324 323 322
325 322 322 319 316 315 314 313 313 313 314 315 315 323 341 343 344 344 343 342 343 342 342 339 340 339 338 335 335 333 331 330 330 329 327 327 326 326 327 327 325 325 324 324 324 324 324 323 322
322 320 319 318 317 316 314 314 313 314 314 316 316 317 340 343 342 343 344 342 342 343 341 340 340 339 338 337 337 334 332 329 328 328 327 326 326 325 325 325 325 325 324 324 324 324 324 323 322
315 320 319 319 316 315 315 315 315 314 315 315 316 319 334 340 343 343 343 341 342 343 342 341 340 340 339 338 337 335 333 331 328 327 326 326 324 325 324 324 325 325 323 324 324 324 323 322 322
312 314 317 320 319 317 316 315 315 314 314 315 316 321 331 338 343 342 342 342 342 342 342 341 340 340 339 338 337 335 334 332 330 329 325 325 325 324 325 325 323 325 323 323 323 323 323 323 321
312 313 317 317 318 317 317 319 316 314 314 316 315 319 327 337 342 343 342 342 341 341 341 340 339 339 338 338 336 335 333 332 331 330 326 324 325 324 325 325 324 324 324 324 324 324 324 323 322
315 315 314 315 316 317 318 318 316 315 314 314 318 319 327 337 341 341 341 341 341 340 340 340 340 338 338 336 335 335 334 333 331 330 327 325 325 324 325 325 324 324 324 324 324 324 324 324 322
315 315 312 312 313 316 317 318 316 315 315 314 315 321 327 337 334 332 339 339 340 339 339 339 339 337 336 335 334 334 335 333 332 331 328 325 325 324 324 326 325 324 324 324 324 325 325 324 323
305 309 313 313 312 314 316 317 316 315 314 315 315 315 327 329 315 316 331 338 339 339 338 338 337 336 336 335 335 333 333 333 333 331 329 326 325 325 324 326 326 325 323 325 325 324 325 325 323
303 307 309 314 312 315 316 316 315 315 314 315 316 314 327 316 314 312 313 328 337 337 337 337 336 335 335 333 333 335 332 332 333 332 330 327 326 326 325 324 326 326 324 323 325 325 325 325 324
301 305 307 313 313 313 314 315 316 314 312 311 306 307 312 312 310 308 307 305 316 328 334 335 335 334 334 333 333 332 331 331 331 332 331 330 326 326 325 324 324 326 322 323 325 325 325 325 325
297 301 305 308 311 320 313 319 315 314 312 311 301 298 298 300 300 300 302 301 302 308 324 332 333 333 333 333 332 332 332 331 331 332 332 331 329 328 326 325 320 322 323 323 324 324 323 324 324
294 297 299 302 308 311 314 316 314 315 314 310 299 295 294 294 295 296 296 297 297 302 309 319 329 331 333 332 332 332 331 331 330 330 331 331 330 329 327 326 324 321 322 322 322 323 324 326 324
292 298 301 303 309 313 313 315 314 315 314 305 295 292 291 291 291 292 293 294 294 298 303 308 315 324 330 331 331 331 331 332 330 329 329 330 330 329 328 328 327 326 322 320 322 322 323 326 325
290 298 302 307 308 312 312 318 299 297 299 300 293 290 288 288 288 289 290 291 292 292 296 301 305 313 321 328 331 331 332 332 331 330 329 329 330 330 331 329 328 328 327 324 323 323 324 325 325
289 293 300 307 309 307 308 318 297 293 291 290 288 287 286 286 286 286 286 287 288 289 291 296 298 303 312 317 323 326 329 330 331 332 331 330 330 330 330 330 329 329 329 328 327 324 325 324 325
288 293 288 293 299 307 301 291 293 292 290 288 287 285 284 284 284 285 284 284 285 286 288 290 294 297 302 307 312 317 321 324 327 327 330 331 330 329 329 331 330 330 330 329 329 328 328 327 327
285 286 291 293 301 310 298 292 291 293 289 287 286 284 283 283 283 283 283 283 283 284 285 287 290 292 296 301 304 308 313 316 319 322 323 324 324 327 329 329 330 329 328 328 328 329 329 328 327
285 284 285 286 290 299 302 290 290 290 288 287 285 284 283 283 282 282 282 281 281 282 283 284 286 289 292 295 300 303 306 309 313 315 317 319 320 321 322 323 324 327 328 329 328 327 327 328 327
284 284 283 286 291 295 295 286 288 288 288 287 286 285 284 283 282 282 281 281 280 281 281 282 283 284 287 291 294 298 300 304 306 307 309 312 314 316 317 319 321 323 323 324 325 327 326 326 326
Wind_Speed
9 5 5 6 6 8 18 22 17 8 7 8 2 7 7 9 8 2 15 14 27 28 27 27 29 29 28 28 26 24 22 20 19 20 19 19 18 19 20 19 20 22 24 23 22 22 22 23 24
8 6 7 5 8 16 17 21 25 12 8 3 6 6 6 9 9 12 16 20 29 29 28 26 29 30 29 28 26 24 22 20 21 22 19 19 20 22 21 20 20 21 23 22 21 22 22 24 24
8 9 5 5 13 20 19 21 20 15 6 7 7 4 9 2 12 19 13 31 29 28 27 27 30 30 29 27 25 24 22 24 23 22 19 22 19 20 22 22 20 18 19 21 20 21 22 24 23
8 6 5 11 22 25 27 18 12 14 14 8 8 5 4 8 14 11 30 31 30 28 27 30 29 30 28 26 25 23 25 23 20 22 21 22 23 21 20 20 19 18 19 19 19 19 21 22 23
13 5 12 17 26 25 20 25 5 12 17 14 11 8 7 7 10 20 32 32 30 29 28 30 30 28 27 26 27 27 26 23 24 23 21 20 20 19 16 19 19 20 19 19 18 19 22 22 24
8 8 10 19 26 28 24 8 8 11 13 14 14 15 8 12 16 27 31 31 30 30 29 29 29 29 29 28 28 28 25 22 24 23 20 18 16 16 21 21 23 23 22 21 20 21 23 23 24
17 12 18 21 24 26 25 17 16 18 14 14 5 18 6 11 18 28 29 29 28 30 30 30 27 28 30 30 30 27 24 23 23 23 23 21 23 23 24 24 23 22 23 22 22 23 23 23 24
15 14 26 23 22 26 20 14 18 20 17 8 13 10 12 14 25 28 24 30 28 31 30 29 28 26 27 27 29 26 24 24 23 27 26 23 24 22 22 23 24 24 23 22 21 21 21 21 22
18 16 20 27 26 22 13 19 16 17 19 10 12 11 7 29 30 27 25 28 30 30 30 30 30 28 27 25 26 26 23 24 24 27 26 21 19 20 20 24 25 23 22 20 19 19 18 18 15
15 18 25 20 22 13 20 11 15 13 16 14 13 6 22 29 31 30 27 27 30 32 33 33 31 30 29 27 27 23 23 22 22 23 22 18 20 18 22 24 24 23 22 17 19 19 17 12 9
16 27 20 19 23 7 12 13 15 18 18 20 20 15 20 23 26 29 27 30 34 33 32 34 32 32 30 30 28 25 22 23 23 23 18 19 18 20 21 23 22 20 17 16 14 12 12 11 10
28 24 27 22 18 8 14 15 16 17 14 6 20 18 20 23 21 26 28 29 34 33 33 35 33 33 30 32 28 27 23 22 23 23 18 19 19 22 20 20 18 15 13 15 11 12 12 13 12
25 27 24 23 26 16 14 18 19 18 16 2 9 17 23 23 25 31 32 32 32 33 33 35 33 34 32 32 28 27 23 22 23 21 19 19 20 19 19 18 16 14 14 13 12 13 12 12 13
20 22 26 25 19 25 18 19 17 16 13 12 8 16 22 24 25 30 28 33 32 33 34 35 33 31 34 30 29 26 25 22 22 21 20 18 19 19 19 18 16 16 14 13 13 13 13 12 12
26 21 16 27 28 20 18 23 29 20 15 14 14 14 20 23 29 25 32 33 34 33 34 35 33 31 33 30 29 26 23 24 21 19 20 19 18 18 19 17 17 18 16 15 14 13 12 12 12
25 25 16 21 23 29 15 30 25 21 21 14 18 15 18 21 22 27 33 32 36 34 32 33 30 35 33 31 31 27 25 23 20 19 19 19 18 19 19 18 17 17 17 15 14 13 12 12 11
19 20 33 22 26 18 26 21 22 23 22 21 13 15 15 15 16 24 31 32 36 37 35 34 33 34 35 34 29 27 26 22 21 20 19 19 19 19 19 18 18 18 17 15 14 12 12 12 11
9 28 24 30 30 27 28 30 20 13 23 21 19 14 15 11 9 8 27 27 31 32 35 38 36 36 32 32 29 29 24 23 22 21 19 19 19 20 19 17 19 18 17 16 15 14 12 12 11
13 14 14 26 25 31 28 23 25 13 9 18 18 17 15 12 4 5 12 29 27 31 33 35 35 34 36 32 32 30 29 26 23 21 20 20 19 20 18 19 20 18 17 17 16 14 14 12 12
15 13 12 17 23 29 28 24 21 24 9 4 9 20 14 8 5 8 11 9 29 31 31 36 37 36 36 35 30 28 27 26 24 21 22 21 20 21 19 19 20 18 17 18 17 14 15 12 14
15 10 11 12 12 23 26 22 22 9 9 6 11 12 11 10 6 8 11 15 11 20 26 28 34 35 34 33 29 24 25 24 22 23 23 23 23 22 20 22 21 19 18 20 18 17 14 13 12
11 9 11 13 9 16 25 15 19 19 14 7 7 10 12 11 10 10 10 16 15 12 16 23 31 35 32 35 32 32 27 24 23 23 22 22 21 23 23 21 22 22 22 22 24 21 17 11 12
9 18 15 14 10 11 22 16 21 22 19 12 6 10 11 11 11 10 12 16 14 13 10 15 27 31 29 34 31 31 25 26 24 24 26 23 23 20 24 23 21 22 23 23 24 19 19 13 13
18 12 13 9 7 9 15 17 21 20 17 13 8 10 12 11 12 12 15 15 20 19 13 9 17 24 28 32 28 29 27 24 24 24 27 25 22 21 21 21 21 21 22 22 22 25 20 14 12
21 8 5 9 7 5 14 18 10 14 16 15 10 10 11 11 12 12 13 16 20 22 21 12 11 18 20 24 25 25 23 26 24 28 26 25 25 25 24 23 20 20 22 20 18 19 18 18 16
13 6 5 9 5 12 14 10 5 9 12 14 13 11 12 13 12 12 16 20 17 21 23 15 15 17 18 20 19 17 21 18 20 24 24 26 28 27 27 23 21 18 16 17 17 21 20 20 19
9 5 7 6 8 6 6 5 11 10 12 13 13 13 13 12 13 14 16 21 20 20 19 19 21 19 15 13 17 17 15 17 20 18 18 18 17 16 18 20 19 18 18 18 17 17 15 15 17
5 7 1 4 5 2 6 7 6 6 11 12 12 11 11 12 13 12 16 16 19 18 19 20 21 18 16 13 13 13 15 15 14 16 17 11 12 17 16 17 17 18 18 18 18 18 17 16 16
10 6 5 5 4 4 1 4 10 11 11 11 10 10 10 11 11 11 16 19 15 19 19 20 23 18 17 14 14 14 13 15 13 13 12 13 11 11 11 11 12 14 16 17 18 18 17 17 18
5 9 6 4 6 3 2 3 9 12 12 12 12 11 9 10 10 10 15 18 23 19 21 21 20 16 17 13 16 16 12 13 11 10 8 9 7 7 8 11 11 12 14 16 18 19 20 20 19
Wind_Direction
214 238 211 199 216 233 232 235 239 226 236 229 299 216 249 203 194 77 146 152 148 149 153 154 155 154 152 149 144 141 137 137 129 123 121 127 117 120 117 109 104 100 99 97 96 98 103 104 98
201 201 204 229 238 225 230 235 229 216 222 187 179 237 232 234 83 123 139 153 150 150 152 154 157 155 152 149 148 146 142 138 131 129 125 132 120 110 115 112 105 103 97 99 100 103 106 102 99
203 219 215 217 230 234 233 227 234 195 164 201 190 230 217 81 101 147 149 151 150 151 153 158 157 155 155 154 150 145 144 140 137 135 125 136 124 120 111 114 113 113 107 106 105 106 107 104 98
195 198 258 235 230 232 240 241 250 202 189 222 218 180 118 48 136 156 151 152 150 151 152 158 163 161 159 156 150 149 148 142 135 136 128 122 121 118 121 113 115 111 113 109 109 117 114 109 100
220 234 236 229 238 242 230 239 200 236 205 217 222 194 135 140 136 147 154 154 153 151 149 154 161 163 161 157 152 153 148 137 135 136 134 125 121 125 130 127 117 114 114 112 111 115 113 108 101
203 235 231 230 234 237 239 232 197 235 223 217 201 230 126 141 151 154 158 156 155 149 150 152 158 154 152 153 155 149 146 141 140 136 139 137 131 129 132 127 124 118 117 113 112 114 110 108 102
226 220 235 243 238 240 228 183 226 231 233 220 186 221 111 155 152 155 160 149 151 147 151 152 152 155 153 151 151 148 148 146 141 136 127 123 123 126 131 130 128 120 117 114 109 108 107 105 99
223 247 243 240 247 243 228 206 220 233 225 204 198 225 179 163 151 153 156 146 147 150 152 152 153 153 153 150 154 154 150 149 140 138 126 122 124 121 127 128 127 122 116 111 107 104 106 103 99
232 234 236 232 236 244 233 221 208 239 236 186 192 253 116 146 150 155 144 153 155 157 156 155 156 155 155 154 156 154 155 151 141 141 130 121 126 117 120 129 128 121 117 114 104 100 103 104 104
219 225 232 234 238 238 246 226 231 213 223 199 202 160 134 148 158 159 159 165 162 163 160 158 159 156 154 153 153 148 148 145 143 142 142 133 136 125 130 127 125 122 116 111 107 97 88 91 96
225 237 222 243 246 271 246 219 231 216 234 217 201 175 152 163 169 169 169 172 167 167 160 160 162 159 155 152 152 150 150 153 154 156 151 142 134 131 127 130 128 127 123 117 116 101 103 98 93
239 231 239 258 240 252 248 261 231 232 231 251 218 190 164 175 174 178 174 172 170 166 165 163 163 160 156 154 154 155 155 154 157 165 155 147 144 151 150 148 145 139 140 137 130 114 107 98 90
248 236 243 234 254 241 239 252 251 239 235 183 267 209 173 186 180 185 178 174 172 167 170 166 164 162 159 159 157 156 154 155 159 162 160 155 156 151 159 158 155 149 143 140 128 124 113 100 91
238 239 241 256 238 243 245 248 243 235 240 228 223 228 184 191 189 178 184 173 177 172 171 167 166 165 161 163 157 153 154 153 156 159 162 160 158 158 153 159 160 147 150 143 138 133 119 108 96
249 270 272 235 237 242 241 245 235 232 231 230 215 221 194 196 185 189 181 172 174 178 167 171 168 164 162 161 156 153 154 152 155 158 161 163 159 158 159 153 159 155 148 144 136 131 127 116 106
228 239 248 238 230 233 231 250 231 234 229 228 217 212 209 189 184 182 182 177 177 174 173 171 170 167 164 162 163 158 158 155 155 158 162 163 161 159 160 153 157 159 152 144 141 139 129 125 118
243 227 227 242 227 223 209 245 238 210 219 224 215 209 207 178 181 181 186 176 178 170 171 167 172 166 166 169 163 162 161 160 157 157 163 165 162 161 161 159 157 160 157 158 151 142 138 136 130
267 224 236 225 225 233 227 227 254 227 206 221 215 202 201 181 173 190 180 179 173 173 169 171 171 172 166 165 167 166 165 166 162 160 163 165 165 166 165 162 160 161 164 163 161 156 153 147 144
297 289 292 242 205 223 222 231 217 215 222 218 222 207 204 134 85 50 170 167 165 167 165 168 167 172 169 163 165 170 173 172 168 165 163 165 167 170 168 167 166 167 169 168 165 161 162 153 152
290 285 288 278 225 212 215 223 221 217 205 238 247 213 147 115 94 55 42 143 166 165 167 170 173 170 172 174 173 171 171 175 168 166 166 172 170 169 173 172 171 171 173 173 171 163 162 163 166
295 270 276 272 267 242 220 224 211 149 141 92 44 30 72 80 75 59 50 29 84 144 171 173 177 175 175 174 168 164 169 172 174 176 175 179 171 180 175 177 173 174 174 174 176 170 164 164 187
309 299 300 277 281 217 209 214 216 168 162 151 59 44 43 47 50 44 37 38 15 59 146 167 175 175 181 174 169 169 172 173 184 182 178 176 180 191 191 187 185 187 177 179 179 186 181 172 182
283 316 300 294 303 271 214 219 203 180 176 163 83 60 48 41 43 39 31 44 19 39 92 142 160 172 176 176 176 175 170 177 181 182 180 182 183 196 195 195 192 197 192 193 197 187 192 195 195
343 288 288 270 260 231 221 195 216 187 187 133 92 61 51 40 40 34 31 45 31 33 69 96 144 153 162 172 176 178 178 172 172 176 184 188 186 193 198 202 205 207 204 206 205 206 206 199 204
356 325 236 218 222 237 194 198 64 32 12 109 99 67 52 42 39 33 27 31 27 23 35 43 81 113 135 154 169 176 177 184 179 188 184 184 185 187 188 189 192 201 206 201 202 205 206 212 210
302 324 316 229 193 217 234 198 92 55 53 66 63 60 52 43 38 37 29 35 21 27 27 29 51 80 108 119 126 144 167 167 175 179 174 183 187 194 196 191 197 195 195 199 213 213 217 214 221
345 336 338 285 223 267 93 74 70 65 59 54 53 51 45 38 34 32 28 31 24 27 22 20 48 53 86 105 120 125 129 151 154 141 164 168 171 176 177 180 187 189 192 195 198 202 210 215 226
13 350 239 214 274 245 82 55 15 27 60 51 46 43 42 38 36 30 33 18 28 26 23 30 43 48 51 82 99 116 129 127 141 152 141 155 154 165 169 183 189 191 194 197 200 203 206 220 223
14 16 337 287 273 320 99 65 327 53 59 66 57 47 41 42 37 31 33 37 22 32 26 30 37 40 52 46 82 84 102 124 116 123 137 158 158 171 173 184 194 199 205 206 211 214 216 222 228
11 18 352 296 7 348 63 67 36 48 55 57 56 57 55 50 42 37 32 33 23 24 29 31 28 28 32 41 62 83 83 90 109 125 137 146 150 166 185 194 203 207 210 213 217 221 222 223 227